カタログに戻る

SL-12 DEB

LostHEO
NORAD 29431·DEBRIS·🇷🇺 Russia

打ち上げ May 31, 1989 から Baikonur Cosmodrome

Loading…

次のパス (今後24時間)

TLE

古いSource: Space-Track

元期: Nov 24, 2006, 04:19 UTC

1 29431U 89039CF  06328.17988122  .00512811  00000-0  11145+0 0  9994
2 29431  67.1510 239.9867 5679936  48.5245 348.0129  4.51873864  5488

AllMySatでSL-12 DEBをリアルタイム追跡

Download on the App Store